CZ-6A DEB, 61383

Orbit data source: Space-Track

CZ-6A DEB, 61383 is space debris in LEO originally from a launch on Tue, 06 Aug 2024 UTC launched from the Taiyaun Space Center, China (TSC). Debris objects in space refer to the collection of defunct objects orbiting the Earth. Examples of debris include non-operational satellites, rocket bodies, and fragments generated from explosions, collisions, or faulty payload assembly.

Loading next visibility...
Identifier
61383, 2024-140WY
Orbit
LEO
Country
Flag of CNCN / PRC
Related business
Manufacturer
SAST
Mission
Spacecraft
Bus & Motor
Unknown
Mass
Unknown
Launch date (UTC)
2024-08-06 (1 year ago)
Launch vehicle
Unknown
Launch site
Taiyaun Space Center, China (TSC)
Object type
Payload
Rocket body
Debris
Shape & HBR
Unknown shape, 0.1 m
Radar Cross Section
Small (<0.1 m²)

Expand to show TLE details & history
Last TLE update: 1 day ago

TLE from 1 day ago
0 CZ-6A DEB
1 61383U 24140WY  25312.71388520  .00002922  00000-0  15697-2 0  9994
2 61383  88.9940 300.2433 0094677 212.2469 147.2906 14.10427937 60503
Epoch: 2025-11-08T17:07Z
TLE epoch observation values (Epoch: 2025-11-08T17:07:59.681Z)
Latitude
-0.00005°
Longitude
-4.89491°
Altitude
918.791 km
Speed
7.363 km/s
True Right ascension
20h 00m 58s
True Declination
0° 00' 00"
Sunlit
Object was in daylight at epoch
Visualization orbit readout
Latitude
Unknown
Longitude
Unknown
Altitude
Unknown
Speed
Unknown
Apparent Right ascension
Unknown
Apparent Declination
Unknown
Sunlit
N/A
Visualization observer readout
Local Sidereal Time
19:40:27
Azimuth
Unknown
Elevation
Unknown
Doppler factor
Unknown
Orbital elements
Apogee altitude
923.352 km
Perigee altitude
786.392 km
Semi-major axis
7,233.009 km
Eccentricity
0.00947
Inclination
88.994°
RAAN
300.2433°
Arg. of periapsis
212.2469°
True anomaly
147.87107°
Mean anomaly
147.2906°
Eccentric anomaly
147.58141°
Mean motion
3.52829 °/min
Orbital period
102.03 mins
BSTAR
0.0015697
Loading maneuver chart data...
Computing Atmospheric mass density...

Documentation

Showing up to 5 results
|